Showing default

IRIDIUM 123, 42804

Orbit data source: Space-Track

IRIDIUM 123, 42804 is a payload satellite owned by Iridium (US) in LEO that was launched on Sun, 25 Jun 2017 UTC via an FALCON 9 launch vehicle from the Air Force Western Test Range (AFWTR). Payload-class satellites include a variety of spacecraft equipped with specific instruments for various scientific and technological missions. These include communications satellites like Starlink; space stations such as the ISS; scientific satellites like the Hubble; Earth observation satellites from companies like Planet Labs, Umbra, and HawkEye 360; GPS; miniature CubeSats for education and research; and military/defense satellites.

Loading next visibility...
Identifier
42804, 2017-039B
Orbit
LEO
Country
Flag of USUS
Related business
Manufacturer
OATK SSG Gilbert
Mission
Operational Commercial Communications
Bus & Motor
ELITEBUS, Unknown motor
Mass
860 kg wet, 700 kg dry
Launch date (UTC)
2017-06-25 (8 years ago)
Launch vehicle
FALCON 9
Launch site
Air Force Western Test Range (AFWTR)
Object type
Payload
Rocket body
Debris
Shape & HBR
Trap Box + 2 Pan, 4.8 m
Radar Cross Section
10.154 m², Large (>1 m²)

Expand to show TLE details & history
Last TLE update: 4 hours ago

TLE from 4 hours ago
0 IRIDIUM 123
1 42804U 17039B   25299.48753204  .00000294  00000-0  97833-4 0  9997
2 42804  86.3926  91.3369 0001943  82.2768 277.8648 14.34218492436457
Epoch: 2025-10-26T11:42Z
TLE epoch observation values (Epoch: 2025-10-26T11:42:02.768Z)
Latitude
-0.00005°
Longitude
-119.27766°
Altitude
780.526 km
Speed
7.464 km/s
True Right ascension
06h 05m 20s
True Declination
0° 00' 00"
Sunlit
Object was in full shadow at epoch
Visualization orbit readout
Latitude
Unknown
Longitude
Unknown
Altitude
Unknown
Speed
Unknown
Apparent Right ascension
Unknown
Apparent Declination
Unknown
Sunlit
N/A
Visualization observer readout
Local Sidereal Time
11:20:03
Azimuth
Unknown
Elevation
Unknown
Doppler factor
Unknown
Orbital elements
Apogee altitude
776.019 km
Perigee altitude
773.239 km
Semi-major axis
7,152.766 km
Eccentricity
0.00019
Inclination
86.3926°
RAAN
91.3369°
Arg. of periapsis
82.2768°
True anomaly
277.84274°
Mean anomaly
277.8648°
Eccentric anomaly
277.85377°
Mean motion
3.58783 °/min
Orbital period
100.34 mins
BSTAR
0.000097833
Loading maneuver chart data...
Computing Atmospheric mass density...
Loading historical data...
Loading historical data...
Loading historical data...
Loading historical data...
Loading historical data...
Loading historical data...
Loading historical data...

Documentation

Showing up to 5 results
|